Year,Month,Day,Hour,Minute,Value (Times are PST for temperature in C)
2015,07,16,00,00,18.20
2015,07,16,00,01,18.20
2015,07,16,00,02,18.20
2015,07,16,00,03,18.20
2015,07,16,00,04,18.20
2015,07,16,00,05,18.10
2015,07,16,00,06,18.10
2015,07,16,00,07,18.10
2015,07,16,00,08,18.10
2015,07,16,00,09,18.10
2015,07,16,00,10,18.10
2015,07,16,00,11,18.10
2015,07,16,00,12,18.10
2015,07,16,00,13,18.10
2015,07,16,00,14,18.10
2015,07,16,00,15,18.00
2015,07,16,00,16,18.00
2015,07,16,00,17,18.00
2015,07,16,00,18,18.00
2015,07,16,00,19,17.90
2015,07,16,00,20,17.90
2015,07,16,00,21,17.90
2015,07,16,00,22,17.90
2015,07,16,00,23,17.90
2015,07,16,00,24,17.80
2015,07,16,00,25,17.80
2015,07,16,00,26,17.80
2015,07,16,00,27,17.80
2015,07,16,00,28,17.80
2015,07,16,00,29,17.70
2015,07,16,00,30,17.70
2015,07,16,00,31,17.70
2015,07,16,00,32,17.70
2015,07,16,00,33,17.70
2015,07,16,00,34,17.70
2015,07,16,00,35,17.60
2015,07,16,00,36,17.60
2015,07,16,00,37,17.60
2015,07,16,00,38,17.60
2015,07,16,00,39,17.60
2015,07,16,00,40,17.60
2015,07,16,00,41,17.60
2015,07,16,00,42,17.60
2015,07,16,00,43,17.60
2015,07,16,00,44,17.50
2015,07,16,00,45,17.50
2015,07,16,00,46,17.50
2015,07,16,00,47,17.50
2015,07,16,00,48,17.40
2015,07,16,00,49,17.40
2015,07,16,00,50,17.40
2015,07,16,00,51,17.40
2015,07,16,00,52,17.40
2015,07,16,00,53,17.40
2015,07,16,00,54,17.40
2015,07,16,00,55,17.30
2015,07,16,00,56,17.30
2015,07,16,00,57,17.30
2015,07,16,00,58,17.30
2015,07,16,00,59,17.30
2015,07,16,01,00,17.30
2015,07,16,01,01,17.30
2015,07,16,01,02,17.20
2015,07,16,01,03,17.20
2015,07,16,01,04,17.20
2015,07,16,01,05,17.20
2015,07,16,01,06,17.20
2015,07,16,01,07,17.20
2015,07,16,01,08,17.20
2015,07,16,01,09,17.20
2015,07,16,01,10,17.10
2015,07,16,01,11,17.10
2015,07,16,01,12,17.10
2015,07,16,01,13,17.10
2015,07,16,01,14,17.10
2015,07,16,01,15,17.00
2015,07,16,01,16,17.00
2015,07,16,01,17,17.00
2015,07,16,01,18,17.00
2015,07,16,01,19,16.90
2015,07,16,01,20,16.90
2015,07,16,01,21,16.90
2015,07,16,01,22,16.90
2015,07,16,01,23,16.90
2015,07,16,01,24,16.90
2015,07,16,01,25,16.90
2015,07,16,01,26,16.90
2015,07,16,01,27,16.90
2015,07,16,01,28,16.90
2015,07,16,01,29,16.90
2015,07,16,01,30,16.80
2015,07,16,01,31,16.80
2015,07,16,01,32,16.80
2015,07,16,01,33,16.80
2015,07,16,01,34,16.80
2015,07,16,01,35,16.80
2015,07,16,01,36,16.80
2015,07,16,01,37,16.80
2015,07,16,01,38,16.80
2015,07,16,01,39,16.80
2015,07,16,01,40,16.80
2015,07,16,01,41,16.80
2015,07,16,01,42,16.80
2015,07,16,01,43,16.80
2015,07,16,01,44,16.80
2015,07,16,01,45,16.80
2015,07,16,01,46,16.80
2015,07,16,01,47,16.80
2015,07,16,01,48,16.80
2015,07,16,01,49,16.80
2015,07,16,01,50,16.80
2015,07,16,01,51,16.80
2015,07,16,01,52,16.80
2015,07,16,01,53,16.80
2015,07,16,01,54,16.80
2015,07,16,01,55,16.70
2015,07,16,01,56,16.70
2015,07,16,01,57,16.70
2015,07,16,01,58,16.70
2015,07,16,01,59,16.70
2015,07,16,02,00,16.70
2015,07,16,02,01,16.70
2015,07,16,02,02,16.70
2015,07,16,02,03,16.70
2015,07,16,02,04,16.60
2015,07,16,02,05,16.60
2015,07,16,02,06,16.60
2015,07,16,02,07,16.70
2015,07,16,02,08,16.70
2015,07,16,02,09,16.70
2015,07,16,02,10,16.70
2015,07,16,02,11,16.70
2015,07,16,02,12,16.70
2015,07,16,02,13,16.70
2015,07,16,02,14,16.70
2015,07,16,02,15,16.70
2015,07,16,02,16,16.70
2015,07,16,02,17,16.70
2015,07,16,02,18,16.70
2015,07,16,02,19,16.70
2015,07,16,02,20,16.70
2015,07,16,02,21,16.70
2015,07,16,02,22,16.70
2015,07,16,02,23,16.70
2015,07,16,02,24,16.70
2015,07,16,02,25,16.70
2015,07,16,02,26,16.70
2015,07,16,02,27,16.60
2015,07,16,02,28,16.60
2015,07,16,02,29,16.60
2015,07,16,02,30,16.60
2015,07,16,02,31,16.60
2015,07,16,02,32,16.60
2015,07,16,02,33,16.60
2015,07,16,02,34,16.60
2015,07,16,02,35,16.60
2015,07,16,02,36,16.50
2015,07,16,02,37,16.50
2015,07,16,02,38,16.50
2015,07,16,02,39,16.50
2015,07,16,02,40,16.50
2015,07,16,02,41,16.40
2015,07,16,02,42,16.40
2015,07,16,02,43,16.40
2015,07,16,02,44,16.40
2015,07,16,02,45,16.40
2015,07,16,02,46,16.40
2015,07,16,02,47,16.40
2015,07,16,02,48,16.30
2015,07,16,02,49,16.30
2015,07,16,02,50,16.30
2015,07,16,02,51,16.30
2015,07,16,02,52,16.30
2015,07,16,02,53,16.20
2015,07,16,02,54,16.20
2015,07,16,02,55,16.20
2015,07,16,02,56,16.10
2015,07,16,02,57,16.10
2015,07,16,02,58,16.10
2015,07,16,02,59,16.00
2015,07,16,03,00,16.00
2015,07,16,03,01,15.90
2015,07,16,03,02,15.90
2015,07,16,03,03,15.90
2015,07,16,03,04,15.90
2015,07,16,03,05,15.80
2015,07,16,03,06,15.80
2015,07,16,03,07,15.80
2015,07,16,03,08,15.80
2015,07,16,03,09,15.70
2015,07,16,03,10,15.70
2015,07,16,03,11,15.70
2015,07,16,03,12,15.70
2015,07,16,03,13,15.60
2015,07,16,03,14,15.60
2015,07,16,03,15,15.60
2015,07,16,03,16,15.60
2015,07,16,03,17,15.60
2015,07,16,03,18,15.60
2015,07,16,03,19,15.60
2015,07,16,03,20,15.60
2015,07,16,03,21,15.60
2015,07,16,03,22,15.60
2015,07,16,03,23,15.60
2015,07,16,03,24,15.60
2015,07,16,03,25,15.60
2015,07,16,03,26,15.60
2015,07,16,03,27,15.70
2015,07,16,03,28,15.70
2015,07,16,03,29,15.70
2015,07,16,03,30,15.70
2015,07,16,03,31,15.70
2015,07,16,03,32,15.70
2015,07,16,03,33,15.70
2015,07,16,03,34,15.70
2015,07,16,03,35,15.70
2015,07,16,03,36,15.70
2015,07,16,03,37,15.70
2015,07,16,03,38,15.70
2015,07,16,03,39,15.70
2015,07,16,03,40,15.70
2015,07,16,03,41,15.70
2015,07,16,03,42,15.70
2015,07,16,03,43,15.70
2015,07,16,03,44,15.70
2015,07,16,03,45,15.70
2015,07,16,03,46,15.70
2015,07,16,03,47,15.70
2015,07,16,03,48,15.70
2015,07,16,03,49,15.70
2015,07,16,03,50,15.70
2015,07,16,03,51,15.70
2015,07,16,03,52,15.70
2015,07,16,03,53,15.70
2015,07,16,03,54,15.70
2015,07,16,03,55,15.70
2015,07,16,03,56,15.70
2015,07,16,03,57,15.70
2015,07,16,03,58,15.60
2015,07,16,03,59,15.60
2015,07,16,04,00,15.60
2015,07,16,04,01,15.60
2015,07,16,04,02,15.60
2015,07,16,04,03,15.50
2015,07,16,04,04,15.50
2015,07,16,04,05,15.40
2015,07,16,04,06,15.40
2015,07,16,04,07,15.40
2015,07,16,04,08,15.40
2015,07,16,04,09,15.40
2015,07,16,04,10,15.30
2015,07,16,04,11,15.30
2015,07,16,04,12,15.30
2015,07,16,04,13,15.30
2015,07,16,04,14,15.30
2015,07,16,04,15,15.30
2015,07,16,04,16,15.20
2015,07,16,04,17,15.20
2015,07,16,04,18,15.20
2015,07,16,04,19,15.20
2015,07,16,04,20,15.20
2015,07,16,04,21,15.20
2015,07,16,04,22,15.10
2015,07,16,04,23,15.10
2015,07,16,04,24,15.10
2015,07,16,04,25,15.00
2015,07,16,04,26,15.00
2015,07,16,04,27,15.00
2015,07,16,04,28,15.00
2015,07,16,04,29,15.00
2015,07,16,04,30,15.00
2015,07,16,04,31,15.00
2015,07,16,04,32,15.00
2015,07,16,04,33,15.00
2015,07,16,04,34,15.00
2015,07,16,04,35,15.00
2015,07,16,04,36,15.00
2015,07,16,04,37,15.00
2015,07,16,04,38,15.00
2015,07,16,04,39,15.00
2015,07,16,04,40,15.00
2015,07,16,04,41,15.00
2015,07,16,04,42,15.00
2015,07,16,04,43,15.00
2015,07,16,04,44,15.00
2015,07,16,04,45,15.00
2015,07,16,04,46,15.00
2015,07,16,04,47,15.00
2015,07,16,04,48,15.00
2015,07,16,04,49,15.00
2015,07,16,04,50,15.00
2015,07,16,04,51,15.00
2015,07,16,04,52,15.00
2015,07,16,04,53,15.00
2015,07,16,04,54,15.00
2015,07,16,04,55,15.00
2015,07,16,04,56,15.00
2015,07,16,04,57,15.00
2015,07,16,04,58,15.00
2015,07,16,04,59,15.00
2015,07,16,05,00,15.00
2015,07,16,05,01,15.00
2015,07,16,05,02,15.00
2015,07,16,05,03,15.00
2015,07,16,05,04,15.00
2015,07,16,05,05,15.00
2015,07,16,05,06,15.00
2015,07,16,05,07,15.00
2015,07,16,05,08,15.00
2015,07,16,05,09,15.00
2015,07,16,05,10,15.00
2015,07,16,05,11,15.00
2015,07,16,05,12,15.00
2015,07,16,05,13,15.00
2015,07,16,05,14,15.00
2015,07,16,05,15,15.00
2015,07,16,05,16,15.00
2015,07,16,05,17,15.00
2015,07,16,05,18,15.00
2015,07,16,05,19,15.00
2015,07,16,05,20,15.00
2015,07,16,05,21,15.00
2015,07,16,05,22,15.00
2015,07,16,05,23,15.00
2015,07,16,05,24,15.00
2015,07,16,05,25,15.00
2015,07,16,05,26,15.00
2015,07,16,05,27,15.00
2015,07,16,05,28,15.00
2015,07,16,05,29,15.00
2015,07,16,05,30,15.00
2015,07,16,05,31,15.00
2015,07,16,05,32,15.00
2015,07,16,05,33,15.00
2015,07,16,05,34,15.00
2015,07,16,05,35,15.00
2015,07,16,05,36,15.00
2015,07,16,05,37,15.00
2015,07,16,05,38,15.00
2015,07,16,05,39,15.00
2015,07,16,05,40,15.00
2015,07,16,05,41,15.00
2015,07,16,05,42,15.00
2015,07,16,05,43,15.00
2015,07,16,05,44,15.00
2015,07,16,05,45,15.00
2015,07,16,05,46,15.00
2015,07,16,05,47,15.00
2015,07,16,05,48,15.00
2015,07,16,05,49,15.00
2015,07,16,05,50,15.00
2015,07,16,05,51,15.00
2015,07,16,05,52,15.00
2015,07,16,05,53,15.00
2015,07,16,05,54,15.00
2015,07,16,05,55,15.10
2015,07,16,05,56,15.10
2015,07,16,05,57,15.20
2015,07,16,05,58,15.20
2015,07,16,05,59,15.20
2015,07,16,06,00,15.20
2015,07,16,06,01,15.20
2015,07,16,06,02,15.20
2015,07,16,06,03,15.20
2015,07,16,06,04,15.30
2015,07,16,06,05,15.20
2015,07,16,06,06,15.30
2015,07,16,06,07,15.30
2015,07,16,06,08,15.30
2015,07,16,06,09,15.30
2015,07,16,06,10,15.20
2015,07,16,06,11,15.20
2015,07,16,06,12,15.20
2015,07,16,06,13,15.20
2015,07,16,06,14,15.20
2015,07,16,06,15,15.20
2015,07,16,06,16,15.20
2015,07,16,06,17,15.20
2015,07,16,06,18,15.20
2015,07,16,06,19,15.20
2015,07,16,06,20,15.20
2015,07,16,06,21,15.20
2015,07,16,06,22,15.20
2015,07,16,06,23,15.20
2015,07,16,06,24,15.30
2015,07,16,06,25,15.30
2015,07,16,06,26,15.30
2015,07,16,06,27,15.30
2015,07,16,06,28,15.40
2015,07,16,06,29,15.40
2015,07,16,06,30,15.40
2015,07,16,06,31,15.40
2015,07,16,06,32,15.50
2015,07,16,06,33,15.50
2015,07,16,06,34,15.50
2015,07,16,06,35,15.60
2015,07,16,06,36,15.60
2015,07,16,06,37,15.60
2015,07,16,06,38,15.50
2015,07,16,06,39,15.50
2015,07,16,06,40,15.50
2015,07,16,06,41,15.50
2015,07,16,06,42,15.40
2015,07,16,06,43,15.50
2015,07,16,06,44,15.50
2015,07,16,06,45,15.40
2015,07,16,06,46,15.40
2015,07,16,06,47,15.40
2015,07,16,06,48,15.50
2015,07,16,06,49,15.50
2015,07,16,06,50,15.50
2015,07,16,06,51,15.50
2015,07,16,06,52,15.50
2015,07,16,06,53,15.60
2015,07,16,06,54,15.60
2015,07,16,06,55,15.60
2015,07,16,06,56,15.60
2015,07,16,06,57,15.60
2015,07,16,06,58,15.70
2015,07,16,06,59,15.70
2015,07,16,07,00,15.70
2015,07,16,07,01,15.70
2015,07,16,07,02,15.80
2015,07,16,07,03,15.80
2015,07,16,07,04,15.80
2015,07,16,07,05,15.80
2015,07,16,07,06,15.90
2015,07,16,07,07,15.90
2015,07,16,07,08,15.90
2015,07,16,07,09,15.90
2015,07,16,07,10,16.00
2015,07,16,07,11,16.00
2015,07,16,07,12,16.10
2015,07,16,07,13,16.10
2015,07,16,07,14,16.20
2015,07,16,07,15,16.20
2015,07,16,07,16,16.30
2015,07,16,07,17,16.30
2015,07,16,07,18,16.40
2015,07,16,07,19,16.50
2015,07,16,07,20,16.50
2015,07,16,07,21,16.40
2015,07,16,07,22,16.40
2015,07,16,07,23,16.40
2015,07,16,07,24,16.40
2015,07,16,07,25,16.40
2015,07,16,07,26,16.40
2015,07,16,07,27,16.40
2015,07,16,07,28,16.40
2015,07,16,07,29,16.40
2015,07,16,07,30,16.40
2015,07,16,07,31,16.50
2015,07,16,07,32,16.50
2015,07,16,07,33,16.50
2015,07,16,07,34,16.60
2015,07,16,07,35,16.60
2015,07,16,07,36,16.60
2015,07,16,07,37,16.60
2015,07,16,07,38,16.60
2015,07,16,07,39,16.60
2015,07,16,07,40,16.70
2015,07,16,07,41,16.70
2015,07,16,07,42,16.70
2015,07,16,07,43,16.70
2015,07,16,07,44,16.70
2015,07,16,07,45,16.70
2015,07,16,07,46,16.70
2015,07,16,07,47,16.60
2015,07,16,07,48,16.60
2015,07,16,07,49,16.60
2015,07,16,07,50,16.70
2015,07,16,07,51,16.70
2015,07,16,07,52,16.60
2015,07,16,07,53,16.70
2015,07,16,07,54,16.70
2015,07,16,07,55,16.80
2015,07,16,07,56,16.80
2015,07,16,07,57,16.80
2015,07,16,07,58,16.80
2015,07,16,07,59,16.80
2015,07,16,08,00,16.90
2015,07,16,08,01,16.90
2015,07,16,08,02,16.90
2015,07,16,08,03,17.00
2015,07,16,08,04,17.00
2015,07,16,08,05,17.10
2015,07,16,08,06,17.10
2015,07,16,08,07,17.20
2015,07,16,08,08,17.20
2015,07,16,08,09,17.20
2015,07,16,08,10,17.20
2015,07,16,08,11,17.10
2015,07,16,08,12,17.10
2015,07,16,08,13,17.10
2015,07,16,08,14,17.10
2015,07,16,08,15,17.10
2015,07,16,08,16,17.00
2015,07,16,08,17,17.00
2015,07,16,08,18,17.00
2015,07,16,08,19,17.00
2015,07,16,08,20,17.10
2015,07,16,08,21,17.10
2015,07,16,08,22,17.10
2015,07,16,08,23,17.10
2015,07,16,08,24,17.20
2015,07,16,08,25,17.10
2015,07,16,08,26,17.10
2015,07,16,08,27,17.10
2015,07,16,08,28,17.10
2015,07,16,08,29,17.10
2015,07,16,08,30,17.10
2015,07,16,08,31,17.10
2015,07,16,08,32,17.10
2015,07,16,08,33,17.10
2015,07,16,08,34,17.20
2015,07,16,08,35,17.30
2015,07,16,08,36,17.30
2015,07,16,08,37,17.40
2015,07,16,08,38,17.50
2015,07,16,08,39,17.60
2015,07,16,08,40,17.60
2015,07,16,08,41,17.60
2015,07,16,08,42,17.60
2015,07,16,08,43,17.70
2015,07,16,08,44,17.80
2015,07,16,08,45,17.80
2015,07,16,08,46,17.90
2015,07,16,08,47,17.90
2015,07,16,08,48,18.00
2015,07,16,08,49,18.00
2015,07,16,08,50,18.00
2015,07,16,08,51,17.90
2015,07,16,08,52,17.90
2015,07,16,08,53,17.80
2015,07,16,08,54,17.80
2015,07,16,08,55,17.80
2015,07,16,08,56,17.80
2015,07,16,08,57,17.80
2015,07,16,08,58,17.90
2015,07,16,08,59,17.90
2015,07,16,09,00,18.00
2015,07,16,09,01,18.10
2015,07,16,09,02,18.20
2015,07,16,09,03,18.10
2015,07,16,09,04,18.10
2015,07,16,09,05,18.10
2015,07,16,09,06,18.10
2015,07,16,09,07,18.10
2015,07,16,09,08,18.10
2015,07,16,09,09,18.00
2015,07,16,09,10,18.00
2015,07,16,09,11,18.00
2015,07,16,09,12,17.90
2015,07,16,09,13,17.90
2015,07,16,09,14,17.90
2015,07,16,09,15,18.00
2015,07,16,09,16,18.00
2015,07,16,09,17,18.10
2015,07,16,09,18,18.20
2015,07,16,09,19,18.20
2015,07,16,09,20,18.20
2015,07,16,09,21,18.30
2015,07,16,09,22,18.30
2015,07,16,09,23,18.40
2015,07,16,09,24,18.50
2015,07,16,09,25,18.50
2015,07,16,09,26,18.60
2015,07,16,09,27,18.60
2015,07,16,09,28,18.60
2015,07,16,09,29,18.60
2015,07,16,09,30,18.60
2015,07,16,09,31,18.60
2015,07,16,09,32,18.70
2015,07,16,09,33,18.80
2015,07,16,09,34,18.90
2015,07,16,09,35,19.00
2015,07,16,09,36,19.10
2015,07,16,09,37,19.20
2015,07,16,09,38,19.20
2015,07,16,09,39,19.20
2015,07,16,09,40,19.20
2015,07,16,09,41,19.20
2015,07,16,09,42,19.20
2015,07,16,09,43,19.20
2015,07,16,09,44,19.20
2015,07,16,09,45,19.20
2015,07,16,09,46,19.20
2015,07,16,09,47,19.20
2015,07,16,09,48,19.20
2015,07,16,09,49,19.20
2015,07,16,09,50,19.20
2015,07,16,09,51,19.30
2015,07,16,09,52,19.40
2015,07,16,09,53,19.40
2015,07,16,09,54,19.50
2015,07,16,09,55,19.60
2015,07,16,09,56,19.70
2015,07,16,09,57,19.70
2015,07,16,09,58,19.70
2015,07,16,09,59,19.60
2015,07,16,10,00,19.60
2015,07,16,10,01,19.50
2015,07,16,10,02,19.50
2015,07,16,10,03,19.50
2015,07,16,10,04,19.50
2015,07,16,10,05,19.50
2015,07,16,10,06,19.50
2015,07,16,10,07,19.60
2015,07,16,10,08,19.50
2015,07,16,10,09,19.40
2015,07,16,10,10,19.40
2015,07,16,10,11,19.40
2015,07,16,10,12,19.40
2015,07,16,10,13,19.40
2015,07,16,10,14,19.40
2015,07,16,10,15,19.40
2015,07,16,10,16,19.50
2015,07,16,10,17,19.60
2015,07,16,10,18,19.70
2015,07,16,10,19,19.80
2015,07,16,10,20,19.80
2015,07,16,10,21,19.90
2015,07,16,10,22,19.90
2015,07,16,10,23,20.00
2015,07,16,10,24,20.00
2015,07,16,10,25,20.00
2015,07,16,10,26,20.10
2015,07,16,10,27,20.20
2015,07,16,10,28,20.20
2015,07,16,10,29,20.30
2015,07,16,10,30,20.20
2015,07,16,10,31,20.10
2015,07,16,10,32,20.00
2015,07,16,10,33,19.90
2015,07,16,10,34,19.90
2015,07,16,10,35,19.90
2015,07,16,10,36,19.90
2015,07,16,10,37,19.90
2015,07,16,10,38,19.90
2015,07,16,10,39,19.90
2015,07,16,10,40,19.90
2015,07,16,10,41,19.90
2015,07,16,10,42,19.90
2015,07,16,10,43,20.00
2015,07,16,10,44,20.00
2015,07,16,10,45,20.10
2015,07,16,10,46,20.20
2015,07,16,10,47,20.30
2015,07,16,10,48,20.30
2015,07,16,10,49,20.40
2015,07,16,10,50,20.40
2015,07,16,10,51,20.40
2015,07,16,10,52,20.40
2015,07,16,10,53,20.30
2015,07,16,10,54,20.20
2015,07,16,10,55,20.00
2015,07,16,10,56,19.80
2015,07,16,10,57,19.70
2015,07,16,10,58,19.60
2015,07,16,10,59,19.60
2015,07,16,11,00,19.60
2015,07,16,11,01,19.60
2015,07,16,11,02,19.70
2015,07,16,11,03,19.70
2015,07,16,11,04,19.70
2015,07,16,11,05,19.80
2015,07,16,11,06,19.80
2015,07,16,11,07,19.80
2015,07,16,11,08,19.80
2015,07,16,11,09,19.90
2015,07,16,11,10,19.90
2015,07,16,11,11,19.90
2015,07,16,11,12,19.90
2015,07,16,11,13,20.00
2015,07,16,11,14,20.10
2015,07,16,11,15,20.10
2015,07,16,11,16,20.10
2015,07,16,11,17,20.10
2015,07,16,11,18,20.10
2015,07,16,11,19,20.20
2015,07,16,11,20,20.20
2015,07,16,11,21,20.30
2015,07,16,11,22,20.30
2015,07,16,11,23,20.50
2015,07,16,11,24,20.50
2015,07,16,11,25,20.40
2015,07,16,11,26,20.40
2015,07,16,11,27,20.40
2015,07,16,11,28,20.40
2015,07,16,11,29,20.40
2015,07,16,11,30,20.40
2015,07,16,11,31,20.40
2015,07,16,11,32,20.40
2015,07,16,11,33,20.40
2015,07,16,11,34,20.40
2015,07,16,11,35,20.40
2015,07,16,11,36,20.50
2015,07,16,11,37,20.50
2015,07,16,11,38,20.40
2015,07,16,11,39,20.40
2015,07,16,11,40,20.50
2015,07,16,11,41,20.60
2015,07,16,11,42,20.60
2015,07,16,11,43,20.60
2015,07,16,11,44,20.60
2015,07,16,11,45,20.70
2015,07,16,11,46,20.70
2015,07,16,11,47,20.80
2015,07,16,11,48,20.90
2015,07,16,11,49,20.90
2015,07,16,11,50,20.90
2015,07,16,11,51,20.90
2015,07,16,11,52,21.00
2015,07,16,11,53,21.00
2015,07,16,11,54,21.10
2015,07,16,11,55,21.10
2015,07,16,11,56,21.10
2015,07,16,11,57,21.20
2015,07,16,11,58,21.10
2015,07,16,11,59,21.10
2015,07,16,12,00,21.00
2015,07,16,12,01,20.90
2015,07,16,12,02,20.80
2015,07,16,12,03,20.80
2015,07,16,12,04,20.80
2015,07,16,12,05,20.80
2015,07,16,12,06,20.80
2015,07,16,12,07,20.90
2015,07,16,12,08,20.90
2015,07,16,12,09,20.90
2015,07,16,12,10,20.90
2015,07,16,12,11,20.90
2015,07,16,12,12,20.90
2015,07,16,12,13,20.90
2015,07,16,12,14,20.90
2015,07,16,12,15,21.00
2015,07,16,12,16,21.10
2015,07,16,12,17,21.20
2015,07,16,12,18,21.30
2015,07,16,12,19,21.30
2015,07,16,12,20,21.30
2015,07,16,12,21,21.30
2015,07,16,12,22,21.30
2015,07,16,12,23,21.30
2015,07,16,12,24,21.30
2015,07,16,12,25,21.30
2015,07,16,12,26,21.30
2015,07,16,12,27,21.30
2015,07,16,12,28,21.40
2015,07,16,12,29,21.40
2015,07,16,12,30,21.50
2015,07,16,12,31,21.50
2015,07,16,12,32,21.50
2015,07,16,12,33,21.50
2015,07,16,12,34,21.50
2015,07,16,12,35,21.50
2015,07,16,12,36,21.50
2015,07,16,12,37,21.40
2015,07,16,12,38,21.50
2015,07,16,12,39,21.40
2015,07,16,12,40,21.40
2015,07,16,12,41,21.30
2015,07,16,12,42,21.30
2015,07,16,12,43,21.40
2015,07,16,12,44,21.40
2015,07,16,12,45,21.40
2015,07,16,12,46,21.40
2015,07,16,12,47,21.50
2015,07,16,12,48,21.50
2015,07,16,12,49,21.50
2015,07,16,12,50,21.40
2015,07,16,12,51,21.30
2015,07,16,12,52,21.20
2015,07,16,12,53,21.30
2015,07,16,12,54,21.30
2015,07,16,12,55,21.30
2015,07,16,12,56,21.30
2015,07,16,12,57,21.40
2015,07,16,12,58,21.50
2015,07,16,12,59,21.60
2015,07,16,13,00,21.70
2015,07,16,13,01,21.70
2015,07,16,13,02,21.60
2015,07,16,13,03,21.60
2015,07,16,13,04,21.60
2015,07,16,13,05,21.60
2015,07,16,13,06,21.70
2015,07,16,13,07,21.70
2015,07,16,13,08,21.80
2015,07,16,13,09,21.80
2015,07,16,13,10,21.80
2015,07,16,13,11,21.90
2015,07,16,13,12,21.90
2015,07,16,13,13,22.00
2015,07,16,13,14,22.10
2015,07,16,13,15,22.10
2015,07,16,13,16,22.10
2015,07,16,13,17,22.00
2015,07,16,13,18,21.90
2015,07,16,13,19,21.90
2015,07,16,13,20,21.90
2015,07,16,13,21,21.90
2015,07,16,13,22,21.90
2015,07,16,13,23,21.90
2015,07,16,13,24,21.90
2015,07,16,13,25,21.90
2015,07,16,13,26,21.80
2015,07,16,13,27,21.90
2015,07,16,13,28,22.00
2015,07,16,13,29,22.00
2015,07,16,13,30,22.10
2015,07,16,13,31,22.10
2015,07,16,13,32,22.10
2015,07,16,13,33,22.20
2015,07,16,13,34,22.20
2015,07,16,13,35,22.30
2015,07,16,13,36,22.30
2015,07,16,13,37,22.30
2015,07,16,13,38,22.30
2015,07,16,13,39,22.30
2015,07,16,13,40,22.30
2015,07,16,13,41,22.20
2015,07,16,13,42,22.20
2015,07,16,13,43,22.30
2015,07,16,13,44,22.40
2015,07,16,13,45,22.40
2015,07,16,13,46,22.40
2015,07,16,13,47,22.30
2015,07,16,13,48,22.30
2015,07,16,13,49,22.30
2015,07,16,13,50,22.40
2015,07,16,13,51,22.50
2015,07,16,13,52,22.60
2015,07,16,13,53,22.70
2015,07,16,13,54,22.70
2015,07,16,13,55,22.70
2015,07,16,13,56,22.70
2015,07,16,13,57,22.70
2015,07,16,13,58,22.70
2015,07,16,13,59,22.80
2015,07,16,14,00,22.80
2015,07,16,14,01,22.90
2015,07,16,14,02,23.00
2015,07,16,14,03,23.10
2015,07,16,14,04,23.20
2015,07,16,14,05,23.30
2015,07,16,14,06,23.30
2015,07,16,14,07,23.30
2015,07,16,14,08,23.30
2015,07,16,14,09,23.30
2015,07,16,14,10,23.30
2015,07,16,14,11,23.30
2015,07,16,14,12,23.30
2015,07,16,14,13,23.30
2015,07,16,14,14,23.20
2015,07,16,14,15,23.10
2015,07,16,14,16,23.10
2015,07,16,14,17,23.10
2015,07,16,14,18,23.20
2015,07,16,14,19,23.30
2015,07,16,14,20,23.40
2015,07,16,14,21,23.40
2015,07,16,14,22,23.30
2015,07,16,14,23,23.30
2015,07,16,14,24,23.30
2015,07,16,14,25,23.30
2015,07,16,14,26,23.40
2015,07,16,14,27,23.40
2015,07,16,14,28,23.50
2015,07,16,14,29,23.50
2015,07,16,14,30,23.60
2015,07,16,14,31,23.60
2015,07,16,14,32,23.70
2015,07,16,14,33,23.70
2015,07,16,14,34,23.70
2015,07,16,14,35,23.70
2015,07,16,14,36,23.70
2015,07,16,14,37,23.70
2015,07,16,14,38,23.80
2015,07,16,14,39,23.90
2015,07,16,14,40,24.00
2015,07,16,14,41,24.10
2015,07,16,14,42,24.10
2015,07,16,14,43,24.20
2015,07,16,14,44,24.20
2015,07,16,14,45,24.20
2015,07,16,14,46,24.10
2015,07,16,14,47,24.10
2015,07,16,14,48,24.10
2015,07,16,14,49,24.10
2015,07,16,14,50,24.00
2015,07,16,14,51,24.00
2015,07,16,14,52,24.00
2015,07,16,14,53,24.00
2015,07,16,14,54,24.10
2015,07,16,14,55,24.10
2015,07,16,14,56,24.20
2015,07,16,14,57,24.20
2015,07,16,14,58,24.20
2015,07,16,14,59,24.20
2015,07,16,15,00,24.20
2015,07,16,15,01,24.20
2015,07,16,15,02,24.10
2015,07,16,15,03,24.10
2015,07,16,15,04,24.20
2015,07,16,15,05,24.20
2015,07,16,15,06,24.30
2015,07,16,15,07,24.30
2015,07,16,15,08,24.40
2015,07,16,15,09,24.40
2015,07,16,15,10,24.40
2015,07,16,15,11,24.50
2015,07,16,15,12,24.40
2015,07,16,15,13,24.30
2015,07,16,15,14,24.30
2015,07,16,15,15,24.20
2015,07,16,15,16,23.90
2015,07,16,15,17,23.80
2015,07,16,15,18,23.60
2015,07,16,15,19,23.60
2015,07,16,15,20,23.60
2015,07,16,15,21,23.40
2015,07,16,15,22,23.30
2015,07,16,15,23,23.30
2015,07,16,15,24,23.30
2015,07,16,15,25,23.30
2015,07,16,15,26,23.30
2015,07,16,15,27,23.40
2015,07,16,15,28,23.40
2015,07,16,15,29,23.50
2015,07,16,15,30,23.40
2015,07,16,15,31,23.30
2015,07,16,15,32,23.30
2015,07,16,15,33,23.30
2015,07,16,15,34,23.30
2015,07,16,15,35,23.30
2015,07,16,15,36,23.20
2015,07,16,15,37,23.20
2015,07,16,15,38,23.20
2015,07,16,15,39,23.10
2015,07,16,15,40,23.00
2015,07,16,15,41,23.00
2015,07,16,15,42,23.00
2015,07,16,15,43,23.10
2015,07,16,15,44,23.10
2015,07,16,15,45,23.20
2015,07,16,15,46,23.30
2015,07,16,15,47,23.40
2015,07,16,15,48,23.50
2015,07,16,15,49,23.70
2015,07,16,15,50,23.80
2015,07,16,15,51,23.90
2015,07,16,15,52,24.00
2015,07,16,15,53,24.10
2015,07,16,15,54,24.10
2015,07,16,15,55,24.10
2015,07,16,15,56,24.10
2015,07,16,15,57,24.00
2015,07,16,15,58,23.90
2015,07,16,15,59,23.80
2015,07,16,16,00,23.70
2015,07,16,16,01,23.60
2015,07,16,16,02,23.60
2015,07,16,16,03,23.50
2015,07,16,16,04,23.30
2015,07,16,16,05,23.20
2015,07,16,16,06,23.20
2015,07,16,16,07,23.20
2015,07,16,16,08,23.20
2015,07,16,16,09,23.20
2015,07,16,16,10,23.10
2015,07,16,16,11,23.10
2015,07,16,16,12,23.10
2015,07,16,16,13,23.10
2015,07,16,16,14,23.10
2015,07,16,16,15,23.10
2015,07,16,16,16,23.10
2015,07,16,16,17,23.20
2015,07,16,16,18,23.20
2015,07,16,16,19,23.20
2015,07,16,16,20,23.10
2015,07,16,16,21,23.10
2015,07,16,16,22,23.10
2015,07,16,16,23,23.20
2015,07,16,16,24,23.10
2015,07,16,16,25,23.20
2015,07,16,16,26,23.20
2015,07,16,16,27,23.20
2015,07,16,16,28,23.20
2015,07,16,16,29,23.20
2015,07,16,16,30,23.20
2015,07,16,16,31,23.20
2015,07,16,16,32,23.10
2015,07,16,16,33,23.10
2015,07,16,16,34,23.10
2015,07,16,16,35,23.10
2015,07,16,16,36,23.10
2015,07,16,16,37,23.10
2015,07,16,16,38,23.10
2015,07,16,16,39,23.10
2015,07,16,16,40,23.20
2015,07,16,16,41,23.20
2015,07,16,16,42,23.20
2015,07,16,16,43,23.30
2015,07,16,16,44,23.30
2015,07,16,16,45,23.30
2015,07,16,16,46,23.30
2015,07,16,16,47,23.30
2015,07,16,16,48,23.30
2015,07,16,16,49,23.40
2015,07,16,16,50,23.40
2015,07,16,16,51,23.30
2015,07,16,16,52,23.30
2015,07,16,16,53,23.30
2015,07,16,16,54,23.40
2015,07,16,16,55,23.40
2015,07,16,16,56,23.40
2015,07,16,16,57,23.40
2015,07,16,16,58,23.40
2015,07,16,16,59,23.40
2015,07,16,17,00,23.40
2015,07,16,17,01,23.40
2015,07,16,17,02,23.40
2015,07,16,17,03,23.40
2015,07,16,17,04,23.40
2015,07,16,17,05,23.50
2015,07,16,17,06,23.50
2015,07,16,17,07,23.60
2015,07,16,17,08,23.60
2015,07,16,17,09,23.60
2015,07,16,17,10,23.50
2015,07,16,17,11,23.50
2015,07,16,17,12,23.40
2015,07,16,17,13,23.40
2015,07,16,17,14,23.40
2015,07,16,17,15,23.40
2015,07,16,17,16,23.40
2015,07,16,17,17,23.40
2015,07,16,17,18,23.40
2015,07,16,17,19,23.50